Find WHDW 10-01

NORAD ID: 65305 Int'l Des: 2025-187 Owner: ZXW Country: CN Constellation: xingwang operational
LEOCIRCULAR

リアルタイム位置

3D地球を読み込み中...

WHDW 10-01について

説明を読み込み中...

次回通過

Passes for default location (London). Set your location on the main map for personalized predictions.

高度履歴

Loading altitude history...

軌道要素

1 65305U 25187A 26104.46014056 -.00000100 00000-0 51777-4 0 9994
2 65305 50.0049 74.4288 0000838 293.0372 67.0412 13.29324215 31227
Epoch: Apr 14, 2026 • Age: 13 hours

現在のステータス

高度 1151.5 km
速度 7.28 km/s
衛星直下点 33.39°N, 95.81°W
打ち上げ日 Aug 25, 2025
運用期間 0.6 years
タイプ other

技術仕様

分類 Payload
質量 800.00 kg
乾燥質量 800.00 kg
総質量 800.00 kg
長さ 3.00 m
直径 1.00 m
スパン 10.00 m
形状 Box + 2 Pan
製造者 SECM
バスタイプ Xingwang S
フェーズステータス In Orbit
所有者/国 ZXW/CN

Most Searched